Location: Zagreb
(45.8000°N, 16.0000°E)
Time: 12:16:31
(UTC+01:00)

X-37B - Visible Passes

Search period start: 06 December 2021 00:00
Search period end: 16 December 2021 00:00
Orbit: 330 x 341 km, 45.0° (Epoch: 20 November)

Date Brightness Start Highest point End Pass type
(mag) Time Alt. Az. Time Alt. Az. Time Alt. Az.
06 Dec 2.7 17:57:09 10° S 17:58:29 15° SSE 17:58:29 15° SSE visible
07 Dec 2.4 18:16:36 10° SW 18:18:08 23° SSW 18:18:08 23° SSW visible
08 Dec 2.6 17:02:35 10° S 17:04:24 16° SSE 17:06:15 10° ESE visible
08 Dec 3.0 18:36:42 10° WSW 18:37:44 20° WSW 18:37:44 20° WSW visible
09 Dec 1.6 17:22:02 10° SW 17:24:37 30° SSE 17:26:05 19° ESE visible
09 Dec 3.9 18:57:03 10° W 18:57:18 12° W 18:57:18 12° W visible
10 Dec 0.7 17:42:08 10° WSW 17:44:56 53° SSE 17:45:37 40° ESE visible
11 Dec 0.5 18:02:28 10° W 18:05:09 70° SW 18:05:09 70° SW visible
12 Dec 0.9 16:47:33 10° WSW 16:50:22 53° SSE 16:53:11 10° E visible
12 Dec 2.0 18:22:54 10° W 18:24:42 34° W 18:24:42 34° W visible
13 Dec 0.4 17:07:54 10° W 17:10:46 74° S 17:13:03 15° E visible
13 Dec 3.3 18:43:22 10° W 18:44:16 18° W 18:44:16 18° W visible
14 Dec 0.3 17:28:20 10° W 17:31:12 76° S 17:32:40 26° E visible
14 Dec 4.1 19:03:53 10° W 19:03:53 10° W 19:03:53 10° W visible
15 Dec 0.7 17:48:47 10° W 17:51:37 58° SSW 17:52:21 40° SE visible
